Theta_e
304 307 318 318 318 312 315 316 315 317 317 315 314 314 313 314 316 319 309 310 308 307 310 315 326 331 335 337 339 341 342 341 339 334 332 331 327 320 326 328 326 323 336 337 334 332 336 337 337
304 314 317 318 312 314 310 311 311 308 310 312 312 312 312 315 314 309 307 308 306 305 306 309 314 325 331 334 336 339 340 341 340 338 334 332 329 323 326 325 335 339 339 340 340 338 337 336 335
307 313 313 310 307 307 307 309 308 309 309 310 309 309 310 307 308 305 304 305 305 305 305 307 308 315 326 331 334 336 339 340 340 339 337 333 331 327 327 330 326 336 338 340 339 338 334 330 331
309 308 308 306 310 311 308 307 308 308 308 308 308 306 306 305 307 304 304 304 304 304 305 305 306 308 317 326 331 333 336 337 339 340 338 336 333 331 330 332 326 332 336 338 338 336 330 329 325
308 308 303 305 306 308 306 306 307 305 306 305 306 305 305 305 305 305 305 304 304 304 304 305 305 305 308 315 323 329 333 336 338 338 338 337 336 332 332 334 335 327 328 331 333 334 332 333 324
305 305 303 305 306 307 303 305 305 305 305 306 305 304 303 303 304 304 304 304 303 303 303 304 304 305 306 307 311 317 326 334 334 336 337 337 336 335 333 334 336 336 333 335 336 336 334 332 325
304 300 303 307 307 306 305 305 304 304 304 304 304 304 303 303 304 303 303 303 303 302 303 303 303 304 304 305 306 309 314 321 333 334 335 336 337 335 335 334 334 336 337 336 336 335 335 332 328
304 300 306 306 305 306 304 305 305 304 304 304 304 302 302 302 302 302 303 303 302 301 301 301 301 302 303 303 304 306 307 310 315 330 334 336 336 336 335 335 335 335 336 337 336 334 334 333 330
304 301 303 306 306 304 303 304 305 305 304 304 304 304 300 300 302 302 303 302 301 299 299 299 299 300 301 302 302 304 305 305 307 311 327 334 335 335 335 334 334 334 334 335 337 336 334 333 330
303 302 306 304 303 302 303 303 303 303 303 303 303 302 302 302 301 300 298 298 298 298 297 297 297 297 298 299 301 302 303 304 304 307 310 325 332 334 334 334 334 334 334 335 336 337 335 334 331
305 304 304 303 304 303 302 302 302 302 300 302 302 303 303 301 299 298 297 297 296 296 296 296 297 297 297 297 298 300 301 302 303 304 305 308 323 331 334 334 333 333 334 334 334 336 336 335 331
302 304 304 304 303 302 301 302 301 302 302 302 302 301 301 300 298 297 296 295 295 295 295 296 296 296 297 296 297 297 299 301 302 302 304 304 308 319 329 332 335 333 333 333 332 334 335 335 332
302 303 304 303 303 302 302 301 301 302 302 302 301 301 300 299 298 296 295 295 295 295 295 295 296 296 295 296 296 297 297 299 301 302 303 304 303 305 314 330 332 334 333 332 332 333 334 333 331
303 303 302 303 303 303 302 301 301 301 301 301 300 300 299 298 297 296 296 295 295 294 294 295 296 295 295 295 296 296 296 297 300 301 302 303 306 304 303 315 327 334 333 333 333 333 333 333 327
303 301 302 303 303 301 300 300 298 301 300 300 299 299 298 297 296 296 295 295 294 294 294 293 294 294 294 295 295 296 296 297 298 301 301 301 304 307 304 304 325 329 332 333 334 333 330 327 327
302 303 303 304 301 300 301 301 298 299 300 299 299 298 297 297 296 295 294 294 293 292 292 292 293 293 293 294 295 295 295 296 298 300 301 301 302 304 308 305 306 324 325 327 331 318 324 324 322
303 304 304 304 301 300 300 300 300 300 299 299 299 298 298 296 295 294 293 293 292 291 291 291 291 291 292 293 294 295 295 296 298 300 300 301 302 303 305 309 303 311 324 323 325 324 319 320 321
306 303 302 303 302 301 300 300 299 301 299 299 299 298 297 295 294 293 293 291 290 290 290 290 290 290 290 292 293 292 294 296 299 299 300 304 303 303 303 304 306 304 313 323 322 323 325 322 324
302 302 300 300 302 300 299 299 299 300 300 300 298 298 296 294 292 292 291 290 288 288 288 288 288 290 290 291 292 293 294 296 299 302 304 306 306 304 302 303 308 311 306 317 324 322 324 324 325
302 302 300 301 300 299 298 299 299 298 298 299 298 295 294 293 292 291 290 288 287 287 287 288 288 289 289 289 292 292 293 295 298 304 305 306 307 306 302 302 306 313 312 305 314 321 322 323 323
301 302 302 301 298 298 297 297 296 297 296 295 295 295 293 291 291 290 288 287 286 286 286 287 287 288 288 289 290 292 292 293 297 301 304 306 307 306 306 304 305 310 314 312 305 311 318 318 320
301 300 299 299 295 298 296 297 296 297 296 295 295 295 292 290 289 288 287 286 285 285 285 286 286 286 287 288 288 290 290 293 296 299 303 306 307 308 307 309 306 309 313 315 309 304 308 320 321
299 298 298 299 293 293 297 290 295 297 296 295 293 293 290 289 289 287 286 285 285 285 285 285 285 286 287 288 288 289 290 292 295 299 299 305 306 307 308 308 304 304 311 315 314 305 309 320 322
298 299 300 297 297 297 294 295 299 295 293 296 293 292 291 289 286 286 285 285 285 284 284 285 285 286 287 287 288 288 289 291 294 297 299 303 305 305 307 307 303 301 301 303 306 305 309 317 321
296 297 293 295 301 297 298 297 299 294 292 289 287 291 290 287 286 285 285 284 284 284 284 284 285 286 287 287 288 288 289 290 293 296 300 301 305 306 302 302 301 301 301 300 301 303 310 318 317
298 295 294 293 295 296 298 295 299 290 289 292 290 291 288 286 285 285 284 283 283 283 283 283 284 285 286 286 287 288 289 290 292 295 297 300 302 301 301 302 302 301 301 303 301 301 304 316 318
299 299 296 290 286 297 294 297 299 292 288 287 289 288 286 285 285 284 283 282 282 282 282 282 283 284 285 286 287 288 289 290 292 295 296 296 297 300 302 303 303 304 305 307 306 304 305 309 315
297 296 296 291 293 293 296 297 299 291 288 286 284 286 285 285 284 283 282 281 282 281 281 282 283 283 284 285 286 287 289 290 292 295 295 296 297 299 301 302 304 304 306 308 309 309 311 311 311
294 295 296 295 293 292 295 296 289 289 283 285 283 286 285 284 283 281 280 281 281 281 281 281 282 283 284 285 286 287 288 289 292 295 296 297 299 299 300 302 304 305 307 309 310 310 311 312 313
295 290 292 293 292 288 291 296 282 282 279 283 286 286 284 283 282 281 280 280 281 281 281 281 281 282 283 283 284 285 287 288 292 294 295 297 299 299 300 301 304 305 307 309 309 309 309 310 311
Wind_Speed
0 5 9 4 3 4 3 4 3 3 4 4 7 5 2 3 2 3 9 7 10 14 16 14 12 7 6 7 8 8 6 6 8 10 10 9 9 12 15 15 17 20 20 21 20 19 18 17 17
2 9 4 1 4 2 4 4 6 4 4 7 4 1 2 3 9 8 4 6 8 14 17 14 11 11 7 7 9 8 9 8 9 11 12 12 11 13 15 17 18 18 20 21 20 19 18 16 17
6 4 2 3 3 4 5 2 6 7 7 5 3 4 3 4 6 5 3 3 4 10 15 15 13 11 10 9 9 13 10 12 11 12 14 14 14 15 17 18 20 20 20 20 21 20 17 15 16
5 2 0 3 5 4 6 4 5 3 6 5 4 3 8 3 4 2 2 4 7 11 16 19 17 14 12 10 10 11 13 13 14 15 15 17 17 17 17 19 22 23 22 22 22 21 18 16 14
3 1 2 1 5 1 4 8 8 4 3 9 3 1 9 4 4 7 8 8 10 13 18 21 21 18 16 13 11 11 14 15 15 18 17 18 20 20 19 21 23 26 26 25 24 22 20 16 14
1 1 2 3 5 5 4 6 5 3 5 3 3 1 6 5 7 8 8 9 8 12 17 20 19 19 16 16 16 14 12 14 18 20 19 20 22 23 24 23 23 26 27 26 25 23 21 17 15
2 3 4 3 3 2 1 3 5 3 3 2 3 1 5 6 6 9 9 12 16 19 21 21 23 21 19 17 17 17 16 15 15 18 20 22 24 26 27 26 25 26 28 27 27 25 23 19 16
1 3 3 4 3 4 2 2 6 4 2 4 2 3 3 5 10 14 19 21 21 22 23 24 26 24 25 20 19 19 19 18 16 16 19 20 24 24 28 30 29 27 28 29 28 27 25 22 17
0 3 2 2 3 3 3 2 5 3 6 6 6 7 9 1 9 15 20 23 25 24 21 21 23 23 23 24 20 20 19 20 19 17 18 17 22 25 27 29 31 31 30 31 30 29 27 25 20
3 3 3 1 1 2 2 3 5 2 5 6 13 7 5 8 13 16 17 19 22 24 25 25 25 25 25 24 25 21 20 21 20 19 17 18 18 23 29 30 30 32 32 32 31 30 33 32 27
1 4 1 2 3 4 4 8 2 3 5 10 7 13 15 15 16 16 17 18 20 23 24 25 25 26 26 25 25 26 23 20 20 18 16 17 17 21 24 30 31 32 33 35 32 31 34 38 34
1 6 2 1 2 2 2 5 6 14 15 16 11 9 11 14 13 13 15 18 20 23 26 28 29 28 27 28 25 24 27 25 21 19 17 16 15 16 20 23 27 30 33 33 33 33 36 39 39
3 2 3 5 8 8 10 11 8 20 19 19 14 13 12 11 13 16 18 20 22 25 27 31 32 32 26 28 30 26 24 27 25 23 20 17 16 14 16 17 16 33 29 30 33 33 34 39 29
2 8 15 11 10 7 5 6 1 5 2 11 13 14 13 13 15 19 22 24 25 25 29 30 31 32 30 26 28 30 26 25 27 28 24 21 20 15 13 15 19 16 28 28 29 28 33 36 27
3 5 7 8 8 3 2 8 8 15 17 16 12 10 9 12 13 16 23 25 26 29 33 31 29 29 31 27 26 28 28 26 26 27 29 25 23 23 16 13 13 13 21 23 27 27 26 18 21
2 1 4 1 9 3 4 9 4 11 14 15 15 13 12 12 12 14 18 24 27 32 30 29 26 27 29 27 24 26 28 26 27 25 28 29 25 24 24 16 14 15 16 17 24 18 26 24 18
2 3 4 3 10 4 6 8 6 16 17 18 19 17 16 14 12 14 19 24 29 29 29 28 25 24 27 25 21 23 26 25 22 24 27 29 27 23 24 23 17 15 14 16 15 21 22 27 23
3 4 4 4 3 5 9 19 6 15 23 23 23 19 16 14 12 15 20 24 25 26 27 28 25 23 25 23 20 21 22 23 20 24 25 25 26 26 25 24 17 12 19 18 20 23 24 19 24
3 2 6 6 7 5 9 14 16 14 19 17 16 19 15 10 10 15 20 23 23 25 26 26 25 22 22 22 18 18 21 23 19 21 23 23 23 24 23 30 25 19 16 20 17 20 21 23 27
2 3 7 6 3 4 9 21 20 9 8 9 15 13 11 10 13 16 20 22 22 25 26 24 21 21 21 20 18 18 23 24 18 20 21 24 18 20 25 22 27 26 17 14 17 16 19 20 24
3 5 4 5 6 3 9 8 5 2 5 6 8 10 10 8 12 16 22 21 22 25 25 21 21 21 20 19 18 20 21 23 18 13 15 21 20 23 25 24 29 29 24 20 19 19 22 22 29
3 2 1 3 5 3 5 5 6 3 5 5 11 12 7 6 13 20 20 20 21 24 24 21 20 21 20 19 18 19 20 21 16 15 10 13 22 25 27 27 25 30 36 26 24 24 23 23 29
7 4 3 1 3 4 3 3 8 3 5 8 8 9 2 13 21 16 13 16 21 23 23 23 22 21 21 19 18 19 20 20 18 19 11 11 22 22 23 24 22 21 31 39 33 27 26 23 28
2 4 3 3 3 1 5 4 6 4 6 2 4 2 13 19 12 8 13 19 21 20 21 21 19 19 20 19 18 17 19 19 16 18 18 11 19 18 19 21 23 21 24 28 30 26 28 30 26
6 4 3 5 2 5 3 2 11 6 6 4 2 10 12 12 6 12 17 18 19 21 21 18 17 18 19 17 16 15 17 16 14 16 22 19 21 20 17 18 17 17 22 25 26 28 29 24 27
2 5 4 5 3 5 2 6 6 4 1 3 8 9 9 6 11 15 16 18 19 19 17 15 15 17 17 15 13 13 14 14 14 15 21 23 22 19 14 14 15 16 21 21 23 24 30 29 25
2 1 2 4 2 1 4 7 5 2 5 7 8 10 10 9 14 16 15 17 18 16 14 14 15 16 14 13 10 9 10 11 11 13 14 15 14 13 12 12 12 12 15 16 19 22 27 32 26
1 4 3 3 2 5 6 6 5 4 6 5 6 10 7 12 15 13 14 16 13 13 13 13 13 14 12 9 7 6 6 6 6 9 10 9 9 10 10 10 9 8 11 13 14 15 16 20 24
1 1 1 3 4 4 3 7 5 6 5 7 7 9 10 13 14 12 15 12 11 12 12 12 11 11 9 6 4 2 1 2 4 7 7 7 6 5 7 8 10 12 12 14 13 14 14 17 17
1 5 4 4 5 3 3 8 3 5 5 7 12 7 9 10 12 14 11 11 10 11 11 11 10 9 8 6 3 2 2 3 4 6 6 6 7 9 10 12 14 15 16 15 16 15 15 15 13
Wind_Direction
261 144 132 109 73 73 250 261 100 95 58 71 70 66 169 18 7 161 121 32 14 346 338 353 3 354 329 306 306 285 261 256 264 255 247 239 227 211 196 194 190 188 193 191 192 188 188 187 189
143 134 105 75 99 121 264 323 91 61 100 80 65 334 30 89 68 107 182 2 12 351 332 331 346 347 324 310 285 293 269 254 252 252 243 238 227 217 207 195 193 191 190 189 188 188 188 192 199
142 115 61 111 159 183 167 129 128 126 105 103 85 76 32 14 77 104 59 349 17 354 325 320 324 335 331 312 293 277 284 262 248 241 243 236 232 219 213 205 200 198 195 193 191 194 195 198 207
151 116 286 102 229 263 127 152 113 71 95 128 142 73 92 70 171 162 266 329 337 328 316 316 327 324 324 320 304 291 280 277 261 247 233 234 232 225 216 213 210 206 204 203 203 205 210 209 217
104 127 66 269 254 172 73 107 84 74 33 91 135 170 114 162 212 236 276 310 327 318 306 306 315 315 316 315 307 288 285 271 263 264 236 232 230 228 224 220 218 214 216 216 220 217 212 217 218
16 127 82 212 254 123 74 79 110 78 32 61 68 51 148 181 237 269 288 313 310 307 301 306 305 305 306 307 309 301 283 285 272 257 258 241 234 226 225 225 222 220 220 222 220 218 216 222 215
123 94 219 229 219 104 84 52 72 93 23 56 130 342 162 198 251 288 306 305 305 302 302 306 304 301 296 297 296 298 296 281 280 265 262 254 234 232 228 225 226 224 224 224 223 224 217 219 217
323 108 277 243 186 178 167 82 132 147 185 140 208 222 157 229 285 301 297 296 297 300 302 297 296 292 294 291 286 285 289 293 285 275 261 258 252 232 231 230 225 224 226 223 226 227 222 221 217
301 61 255 292 31 185 164 113 175 175 203 222 220 261 137 179 286 283 291 298 304 308 308 305 303 302 295 291 289 277 276 282 287 287 272 259 252 245 234 233 232 227 226 228 224 222 223 224 219
106 134 226 181 56 61 339 65 338 302 244 239 257 195 229 287 315 320 322 316 311 308 311 308 307 308 303 296 288 283 272 267 276 281 280 261 252 243 239 235 234 232 229 229 228 227 219 216 211
334 198 184 40 77 24 332 320 315 293 274 240 218 244 266 300 321 326 317 316 315 309 308 310 309 309 309 304 295 285 279 266 258 265 275 273 251 245 241 238 236 235 231 228 229 229 225 216 205
319 271 199 236 52 352 303 306 300 253 256 289 272 267 283 299 318 321 317 315 312 311 310 310 308 304 301 301 296 289 280 274 260 253 255 266 259 252 243 244 234 234 233 233 232 231 229 221 224
189 311 328 289 280 269 266 254 253 268 267 274 266 273 284 303 305 305 308 306 304 308 313 313 311 309 302 292 291 289 281 272 266 255 245 248 257 244 253 244 246 233 231 229 227 227 231 225 215
277 298 287 285 254 242 248 266 207 241 196 225 248 262 285 289 288 293 299 302 304 307 314 313 307 307 303 297 289 287 284 275 264 257 250 240 243 254 237 241 247 225 229 229 226 222 223 226 187
290 313 304 230 215 224 29 286 228 253 244 238 236 263 264 248 265 281 289 296 302 303 308 308 305 301 298 297 288 281 278 272 266 258 253 244 236 244 248 228 235 248 208 213 210 187 175 184 179
297 232 328 259 141 174 116 276 227 185 190 209 228 233 228 246 264 275 281 291 298 302 307 307 304 300 298 296 285 277 273 270 265 257 253 246 237 239 242 235 224 221 214 202 197 187 196 195 181
288 259 241 313 196 145 196 262 203 209 213 224 229 223 237 241 244 261 281 296 304 306 309 309 307 300 298 297 291 276 273 272 260 257 249 245 237 235 237 235 220 215 218 201 208 194 169 172 178
200 268 295 268 260 214 244 255 251 234 229 236 241 217 221 223 242 272 293 307 311 310 311 310 307 302 298 299 295 285 282 273 260 254 247 240 232 236 231 225 216 212 215 199 205 219 205 200 191
139 216 248 277 280 284 248 274 275 251 262 254 205 201 214 221 263 291 306 319 317 311 313 312 308 309 303 300 299 290 290 276 258 246 245 238 230 229 233 232 234 213 224 210 207 209 218 209 208
159 275 276 282 61 346 292 291 288 283 258 227 209 191 207 245 273 299 317 323 316 316 317 314 311 309 304 306 298 283 279 277 270 244 240 228 225 234 229 228 230 231 212 211 217 207 215 208 217
229 209 246 247 338 288 320 305 318 334 94 113 170 211 239 274 298 311 322 325 320 319 324 321 317 311 307 302 300 274 273 279 280 253 248 222 217 216 222 221 222 230 216 218 223 211 224 206 226
292 65 17 334 36 290 68 283 292 213 232 235 239 238 239 306 322 328 330 325 321 322 320 318 317 315 308 303 298 289 278 273 269 242 245 220 214 215 219 224 220 216 229 226 226 219 220 224 222
227 10 298 202 126 35 337 60 273 179 258 246 243 223 324 338 331 337 330 314 312 315 313 312 313 311 312 302 295 288 276 266 259 245 261 200 208 212 220 227 229 221 217 220 234 227 221 222 234
13 19 51 73 94 336 233 137 273 207 213 210 115 81 339 335 337 320 303 308 312 316 319 316 311 311 312 303 294 281 273 267 257 251 251 218 216 226 223 230 228 223 220 226 229 233 230 227 228
60 60 333 354 323 226 192 213 255 245 223 199 254 318 324 336 319 309 312 316 320 323 323 321 318 314 315 309 295 279 268 260 250 240 240 241 226 233 239 230 229 233 227 228 228 225 227 231 232
162 147 151 250 270 277 236 237 253 231 290 273 281 313 329 317 309 307 313 320 320 322 323 322 321 319 317 313 299 281 266 251 237 236 234 237 236 238 236 235 231 222 229 224 221 221 224 226 230
243 89 150 91 97 315 242 279 290 309 299 289 284 319 322 300 304 305 315 320 323 327 328 325 322 321 319 317 308 287 262 244 226 228 234 233 235 235 235 239 232 216 215 219 219 217 216 221 227
111 164 60 13 356 304 286 283 243 285 276 280 292 309 289 293 300 313 319 323 328 330 331 332 328 329 325 325 321 294 256 232 216 227 232 236 242 237 231 226 219 223 216 209 206 211 218 217 222
71 95 50 121 138 186 296 270 222 208 211 247 279 290 284 303 314 320 324 328 334 333 341 341 338 339 336 339 344 319 248 200 204 225 225 222 214 249 241 215 213 217 204 199 192 188 189 197 212
165 179 152 125 260 231 154 272 218 212 211 233 287 282 304 309 316 321 332 338 341 348 354 358 357 359 359 2 17 70 128 143 180 194 187 180 216 213 205 199 195 193 182 184 184 181 181 182 191